Location: Killam
(52.7910°N, 111.8608°W)
Time: 05:09:34
(UTC+00:00)

Transit 2A - Pass Details

Date: 16 February 2026
Orbit: 590 x 954 km, 66.7° (Epoch: 14 March)

Event Time Altitude Azimuth Distance (km) Brightness Sun altitude
Rises 06:21:51 0° 315° (NW) 3,580 10.1 -46.5°
Reaches altitude 10° 06:25:01 10° 300° (WNW) 2,589 9.1 -46.7°
Enters shadow 06:25:03 10° 300° (WNW) 2,582 9.1 -46.7°
